TimeEST,TemperatureF,Dew PointF,Humidity,Sea Level PressureIn,VisibilityMPH,Wind Direction,Wind SpeedMPH,Gust SpeedMPH,PrecipitationIn,Events,Conditions,WindDirDegrees,DateUTC
12:52 AM,27.0,1.9,34,30.17,10.0,West,8.1,-,N/A,,Clear,270,2013-02-19 05:52:00
1:52 AM,27.0,3.9,37,30.17,10.0,West,6.9,17.3,N/A,,Clear,260,2013-02-19 06:52:00
2:52 AM,27.0,6.1,41,30.17,10.0,West,4.6,-,N/A,,Clear,270,2013-02-19 07:52:00
3:52 AM,27.0,8.1,45,30.17,10.0,Variable,3.5,-,N/A,,Clear,0,2013-02-19 08:52:00
4:52 AM,26.1,9.0,49,30.17,10.0,West,4.6,-,N/A,,Clear,270,2013-02-19 09:52:00
5:52 AM,23.0,10.9,60,30.16,10.0,Calm,Calm,-,N/A,,Clear,0,2013-02-19 10:52:00
6:52 AM,28.9,16.0,58,30.17,10.0,Variable,3.5,-,N/A,,Partly Cloudy,0,2013-02-19 11:52:00
7:52 AM,33.1,18.0,54,30.16,10.0,Calm,Calm,-,N/A,,Clear,0,2013-02-19 12:52:00
8:52 AM,37.0,25.0,62,30.14,10.0,SSW,3.5,-,N/A,,Clear,210,2013-02-19 13:52:00
9:52 AM,39.0,25.0,57,30.14,10.0,SSW,6.9,-,N/A,,Clear,200,2013-02-19 14:52:00
10:52 AM,41.0,28.9,62,30.13,10.0,SSW,9.2,-,N/A,,Clear,210,2013-02-19 15:52:00
11:52 AM,42.1,30.9,65,30.11,10.0,SSW,6.9,-,N/A,,Clear,210,2013-02-19 16:52:00
1:52 PM,42.1,33.1,70,30.04,10.0,South,10.4,19.6,N/A,,Partly Cloudy,170,2013-02-19 18:52:00
2:52 PM,41.0,35.1,79,30.01,10.0,South,11.5,19.6,N/A,,Mostly Cloudy,170,2013-02-19 19:52:00
3:52 PM,42.1,37.0,82,29.97,10.0,SSE,11.5,19.6,N/A,,Clear,160,2013-02-19 20:52:00
4:52 PM,42.1,37.9,85,29.94,10.0,SSE,10.4,19.6,N/A,,Overcast,160,2013-02-19 21:52:00
5:52 PM,43.0,37.9,82,29.90,10.0,SSE,13.8,23.0,0.00,,Overcast,160,2013-02-19 22:52:00
7:52 PM,44.1,39.9,85,29.79,10.0,SSE,12.7,26.5,0.00,Rain,Light Rain,160,2013-02-20 00:52:00
8:52 PM,44.1,42.1,93,29.73,5.0,SSE,13.8,27.6,0.04,Rain,Rain,150,2013-02-20 01:52:00
9:52 PM,44.1,43.0,96,29.68,4.0,South,16.1,28.8,0.11,Rain,Rain,170,2013-02-20 02:52:00
10:02 PM,44.6,42.8,93,29.66,5.0,SSE,15.0,28.8,0.01,Rain,Light Rain,160,2013-02-20 03:02:00
10:25 PM,44.6,42.8,93,29.66,2.5,SSW,9.2,21.9,0.10,Rain,Heavy Rain,200,2013-02-20 03:25:00
10:35 PM,42.8,42.8,100,29.68,1.8,SW,15.0,28.8,0.22,Rain,Heavy Rain,220,2013-02-20 03:35:00
10:48 PM,44.6,42.8,93,29.65,3.0,SSW,16.1,32.2,0.34,Rain,Rain,200,2013-02-20 03:48:00
10:52 PM,45.0,43.0,93,29.65,3.0,SSW,13.8,32.2,0.36,Rain,Heavy Rain,200,2013-02-20 03:52:00
11:16 PM,44.6,42.8,93,29.64,2.5,SW,18.4,28.8,0.09,Rain,Heavy Rain,230,2013-02-20 04:16:00
11:32 PM,42.8,42.8,100,29.63,3.0,SW,8.1,-,0.15,Rain,Rain,230,2013-02-20 04:32:00
11:52 PM,42.1,42.1,100,29.62,3.0,WSW,6.9,-,0.19,Rain,Light Rain,240,2013-02-20 04:52:00